Location: Biltmore Gardens
(41.6070°N, 83.4666°W)
Time: 14:14:21
(UTC+00:00)

Cosmos 1707 Rocket - Pass Details

Date: 14 July 2020
Orbit: 605 x 632 km, 82.5° (Epoch: 04 August)

Event Time Altitude Azimuth Distance (km) Brightness Sun altitude
Rises 05:54:58 0° 348° (NNW) 2,921 8.2 -26.7°
Reaches altitude 10° 05:57:14 10° 345° (NNW) 2,006 7.1 -26.7°
Enters shadow 06:00:48 51° 313° (NW) 788 4.2 -26.6°
